| time (UTC) | temp F | wind direction | speed knots | gust knots | rain 1hr in | rain 24hr in | rain mn in | humidity % | barometer mb |
| 20260904051804 | 80 | 152 | 9.6 | 15.6 | 0.00 | 0.00 | 0.00 | 73 | 1012.2 |
| 20260904051304 | 80 | 158 | 9.6 | 18.2 | 0.00 | 0.00 | 0.00 | 73 | 1012.1 |
| 20260904050804 | 80 | 153 | 8.7 | 13.0 | 0.00 | 0.00 | 0.00 | 73 | 1012.1 |
| 20260904044804 | 80 | 156 | 7.8 | 13.0 | 0.00 | 0.00 | 0.00 | 72 | 1012.2 |
| 20260904044305 | 80 | 165 | 11.3 | 15.6 | 0.00 | 0.00 | 0.00 | 72 | 1012.2 |
| 20260904043805 | 80 | 158 | 7.8 | 17.4 | 0.00 | 0.00 | 0.00 | 71 | 1012.2 |
| 20260904043304 | 80 | 153 | 7.8 | 15.6 | 0.00 | 0.00 | 0.00 | 71 | 1012.1 |
| 20260904041804 | 81 | 158 | 7.0 | 13.0 | 0.00 | 0.00 | 0.00 | 71 | 1012.2 |
| 20260904040304 | 81 | 151 | 10.4 | 14.8 | 0.00 | 0.00 | 0.00 | 71 | 1012.0 |
| 20260904034804 | 81 | 155 | 9.6 | 15.6 | 0.00 | 0.00 | 0.00 | 70 | 1011.9 |
| 20260904034305 | 81 | 160 | 8.7 | 15.6 | 0.00 | 0.00 | 0.00 | 70 | 1011.9 |
| 20260904033804 | 81 | 146 | 10.4 | 15.6 | 0.00 | 0.00 | 0.00 | 70 | 1011.8 |
| 20260904033304 | 81 | 149 | 11.3 | 20.9 | 0.00 | 0.00 | 0.00 | 69 | 1011.8 |
| 20260904031804 | 82 | 150 | 14.8 | 20.9 | 0.00 | 0.00 | 0.00 | 68 | 1011.6 |
| 20260904031304 | 82 | 147 | 11.3 | 18.2 | 0.00 | 0.00 | 0.00 | 68 | 1011.6 |
| 20260904030805 | 82 | 140 | 12.2 | 18.2 | 0.00 | 0.00 | 0.00 | 67 | 1011.6 |
| 20260904030304 | 82 | 142 | 10.4 | 20.0 | 0.00 | 0.00 | 0.00 | 67 | 1011.6 |
| 20260904024805 | 83 | 147 | 11.3 | 17.4 | 0.00 | 0.00 | 0.00 | 66 | 1011.5 |
| 20260904024305 | 83 | 142 | 10.4 | 17.4 | 0.00 | 0.00 | 0.00 | 65 | 1011.4 |
| 20260904023805 | 83 | 143 | 13.9 | 18.2 | 0.00 | 0.00 | 0.00 | 65 | 1011.3 |
| 20260904023304 | 83 | 150 | 8.7 | 17.4 | 0.00 | 0.00 | 0.00 | 65 | 1011.2 |
| 20260904021805 | 84 | 151 | 10.4 | 17.4 | 0.00 | 0.00 | 0.00 | 64 | 1010.9 |
| 20260904021305 | 84 | 138 | 8.7 | 17.4 | 0.00 | 0.00 | 0.00 | 63 | 1010.9 |
| 20260904020804 | 84 | 125 | 10.4 | 15.6 | 0.00 | 0.00 | 0.00 | 63 | 1010.9 |
| 20260904020305 | 84 | 152 | 13.0 | 21.7 | 0.00 | 0.00 | 0.00 | 63 | 1010.9 |
| 20260904014804 | 84 | 152 | 10.4 | 17.4 | 0.00 | 0.00 | 0.00 | 62 | 1010.7 |
| 20260904014304 | 85 | 140 | 10.4 | 17.4 | 0.00 | 0.00 | 0.00 | 62 | 1010.7 |
| 20260904013805 | 85 | 153 | 9.6 | 13.9 | 0.00 | 0.00 | 0.00 | 62 | 1010.7 |
| 20260904011805 | 85 | 154 | 10.4 | 20.0 | 0.00 | 0.00 | 0.00 | 61 | 1010.3 |
| 20260904011305 | 85 | 143 | 12.2 | 21.7 | 0.00 | 0.00 | 0.00 | 61 | 1010.3 |
| 20260904010805 | 86 | 150 | 11.3 | 20.9 | 0.00 | 0.00 | 0.00 | 60 | 1010.2 |
| 20260904010304 | 86 | 154 | 14.8 | 22.6 | 0.00 | 0.00 | 0.00 | 60 | 1010.0 |
| 20260904004805 | 86 | 154 | 12.2 | 21.7 | 0.00 | 0.00 | 0.00 | 60 | 1010.0 |
| 20260904003805 | 87 | 148 | 13.0 | 25.2 | 0.00 | 0.00 | 0.00 | 59 | 1010.1 |
| 20260904003305 | 87 | 163 | 14.8 | 24.3 | 0.00 | 0.00 | 0.00 | 58 | 1010.1 |
| 20260904001805 | 88 | 151 | 13.9 | 21.7 | 0.00 | 0.00 | 0.00 | 59 | 1010.2 |
| 20260904001304 | 88 | 147 | 15.6 | 21.7 | 0.00 | 0.00 | 0.00 | 59 | 1010.2 |
| 20260904000804 | 88 | 137 | 11.3 | 20.9 | 0.00 | 0.00 | 0.00 | 59 | 1010.1 |
| 20260904000304 | 88 | 129 | 8.7 | 26.1 | 0.00 | 0.00 | 0.00 | 59 | 1010.1 |
| 20260903234804 | 89 | 135 | 15.6 | 24.3 | 0.00 | 0.00 | 0.00 | 58 | 1009.9 |
| 20260903233805 | 91 | 138 | 18.2 | 25.2 | 0.00 | 0.00 | 0.00 | 55 | 1009.8 |
| 20260903233305 | 92 | 143 | 14.8 | 22.6 | 0.00 | 0.00 | 0.00 | 52 | 1009.7 |
| 20260903231805 | 92 | 141 | 17.4 | 22.6 | 0.00 | 0.00 | 0.00 | 46 | 1009.3 |
| 20260903230804 | 93 | 155 | 13.9 | 22.6 | 0.00 | 0.00 | 0.00 | 46 | 1009.4 |
| 20260903230305 | 93 | 151 | 15.6 | 32.2 | 0.00 | 0.00 | 0.00 | 46 | 1009.3 |
| 20260903224805 | 94 | 150 | 14.8 | 22.6 | 0.00 | 0.00 | 0.00 | 45 | 1009.2 |
| 20260903224305 | 94 | 144 | 10.4 | 18.2 | 0.00 | 0.00 | 0.00 | 46 | 1009.1 |
| 20260903223804 | 94 | 144 | 14.8 | 21.7 | 0.00 | 0.00 | 0.00 | 45 | 1009.0 |
| 20260903223305 | 95 | 136 | 15.6 | 26.1 | 0.00 | 0.00 | 0.00 | 45 | 1009.0 |
| 20260903221804 | 97 | 132 | 11.3 | 18.2 | 0.00 | 0.00 | 0.00 | 42 | 1008.9 |
| 20260903221305 | 97 | 144 | 12.2 | 20.9 | 0.00 | 0.00 | 0.00 | 40 | 1008.8 |
| 20260903220804 | 97 | 144 | 13.9 | 20.9 | 0.00 | 0.00 | 0.00 | 40 | 1008.8 |
| 20260903220304 | 97 | 152 | 10.4 | 22.6 | 0.00 | 0.00 | 0.00 | 41 | 1008.8 |
| 20260903214305 | 98 | 138 | 12.2 | 21.7 | 0.00 | 0.00 | 0.00 | 40 | 1009.0 |
| 20260903213804 | 98 | 155 | 10.4 | 17.4 | 0.00 | 0.00 | 0.00 | 40 | 1009.0 |
| 20260903211804 | 98 | 167 | 8.7 | 15.6 | 0.00 | 0.00 | 0.00 | 39 | 1009.1 |
| 20260903211304 | 98 | 154 | 11.3 | 15.6 | 0.00 | 0.00 | 0.00 | 39 | 1009.3 |
| 20260903210805 | 98 | 133 | 7.8 | 13.0 | 0.00 | 0.00 | 0.00 | 38 | 1009.3 |
| 20260903210305 | 97 | 136 | 10.4 | 20.9 | 0.00 | 0.00 | 0.00 | 39 | 1009.3 |
| 20260903204805 | 99 | 157 | 7.0 | 14.8 | 0.00 | 0.00 | 0.00 | 37 | 1009.4 |
| 20260903204305 | 99 | 168 | 9.6 | 14.8 | 0.00 | 0.00 | 0.00 | 37 | 1009.6 |
| 20260903203804 | 98 | 140 | 6.1 | 17.4 | 0.00 | 0.00 | 0.00 | 37 | 1009.6 |
| 20260903203304 | 99 | 128 | 7.8 | 17.4 | 0.00 | 0.00 | 0.00 | 38 | 1009.7 |
| 20260903201304 | 99 | 163 | 8.7 | 13.0 | 0.00 | 0.00 | 0.00 | 38 | 1010.0 |
| 20260903200805 | 98 | 165 | 7.0 | 13.9 | 0.00 | 0.00 | 0.00 | 39 | 1010.0 |
| 20260903200305 | 99 | 155 | 11.3 | 14.8 | 0.00 | 0.00 | 0.00 | 38 | 1010.1 |
| 20260903194304 | 98 | 133 | 6.1 | 13.9 | 0.00 | 0.00 | 0.00 | 40 | 1010.2 |
| 20260903193305 | 98 | 167 | 5.2 | 18.2 | 0.00 | 0.00 | 0.00 | 41 | 1010.3 |
| 20260903191804 | 97 | 94 | 6.1 | 12.2 | 0.00 | 0.00 | 0.00 | 41 | 1010.7 |
| 20260903191305 | 97 | 153 | 12.2 | 17.4 | 0.00 | 0.00 | 0.00 | 41 | 1010.8 |
| 20260903190804 | 97 | 82 | 8.7 | 14.8 | 0.00 | 0.00 | 0.00 | 41 | 1010.9 |
| 20260903190305 | 97 | 145 | 8.7 | 13.9 | 0.00 | 0.00 | 0.00 | 41 | 1011.1 |
| 20260903184804 | 97 | 155 | 13.9 | 20.0 | 0.00 | 0.00 | 0.00 | 39 | 1011.3 |
| 20260903183804 | 97 | 112 | 12.2 | 17.4 | 0.00 | 0.00 | 0.00 | 38 | 1011.3 |
| 20260903181805 | 96 | 141 | 8.7 | 11.3 | 0.00 | 0.00 | 0.00 | 40 | 1011.7 |
| 20260903181304 | 96 | 152 | 7.0 | 12.2 | 0.00 | 0.00 | 0.00 | 41 | 1011.7 |
| 20260903180805 | 95 | 124 | 7.0 | 13.9 | 0.00 | 0.00 | 0.00 | 42 | 1011.7 |
| 20260903180305 | 96 | 136 | 8.7 | 15.6 | 0.00 | 0.00 | 0.00 | 42 | 1011.8 |
| 20260903174804 | 96 | 153 | 7.8 | 12.2 | 0.00 | 0.00 | 0.00 | 42 | 1011.9 |
| 20260903174304 | 96 | 186 | 6.1 | 13.0 | 0.00 | 0.00 | 0.00 | 41 | 1011.9 |
| 20260903173804 | 96 | 158 | 6.1 | 13.0 | 0.00 | 0.00 | 0.00 | 42 | 1012.0 |
| 20260903173304 | 95 | 161 | 7.0 | 15.6 | 0.00 | 0.00 | 0.00 | 42 | 1012.1 |
| 20260903171805 | 94 | 150 | 5.2 | 15.6 | 0.00 | 0.00 | 0.00 | 44 | 1012.3 |
| 20260903171304 | 95 | 180 | 10.4 | 17.4 | 0.00 | 0.00 | 0.00 | 43 | 1012.4 |
| 20260903170804 | 95 | 162 | 6.1 | 13.0 | 0.00 | 0.00 | 0.00 | 45 | 1012.4 |
| 20260903170304 | 94 | 184 | 6.1 | 13.9 | 0.00 | 0.00 | 0.00 | 46 | 1012.4 |
| 20260903164804 | 93 | 157 | 8.7 | 17.4 | 0.00 | 0.00 | 0.00 | 48 | 1012.5 |
| 20260903164304 | 92 | 181 | 7.0 | 13.9 | 0.00 | 0.00 | 0.00 | 49 | 1012.6 |
| 20260903163805 | 92 | 157 | 8.7 | 14.8 | 0.00 | 0.00 | 0.00 | 49 | 1012.7 |
| 20260903163304 | 92 | 165 | 8.7 | 15.6 | 0.00 | 0.00 | 0.00 | 51 | 1012.7 |
| 20260903161804 | 91 | 175 | 7.0 | 14.8 | 0.00 | 0.00 | 0.00 | 52 | 1012.7 |
| 20260903161304 | 91 | 165 | 7.8 | 13.9 | 0.00 | 0.00 | 0.00 | 54 | 1012.6 |
| 20260903160804 | 90 | 167 | 7.8 | 13.9 | 0.00 | 0.00 | 0.00 | 55 | 1012.6 |
| 20260903160304 | 90 | 165 | 7.8 | 13.9 | 0.00 | 0.00 | 0.00 | 54 | 1012.5 |
| 20260903154304 | 89 | 170 | 4.3 | 13.0 | 0.00 | 0.00 | 0.00 | 58 | 1012.7 |
| 20260903153805 | 89 | 210 | 4.3 | 11.3 | 0.00 | 0.00 | 0.00 | 59 | 1012.7 |
| 20260903153305 | 88 | 182 | 4.3 | 12.2 | 0.00 | 0.00 | 0.00 | 60 | 1012.8 |
| 20260903151804 | 87 | 215 | 5.2 | 10.4 | 0.00 | 0.00 | 0.00 | 62 | 1012.7 |
| 20260903151304 | 87 | 192 | 5.2 | 13.0 | 0.00 | 0.00 | 0.00 | 63 | 1012.8 |
| 20260903150804 | 87 | 180 | 6.1 | 12.2 | 0.00 | 0.00 | 0.00 | 62 | 1012.7 |
| 20260903150304 | 87 | 172 | 3.5 | 13.0 | 0.00 | 0.00 | 0.00 | 63 | 1012.7 |
| 20260903144804 | 86 | 171 | 5.2 | 12.2 | 0.00 | 0.00 | 0.00 | 66 | 1012.7 |
| 20260903144304 | 85 | 201 | 4.3 | 7.8 | 0.00 | 0.00 | 0.00 | 67 | 1012.8 |
| 20260903143304 | 85 | 196 | 4.3 | 10.4 | 0.00 | 0.00 | 0.00 | 68 | 1012.8 |
| 20260903141304 | 83 | 195 | 2.6 | 7.8 | 0.00 | 0.00 | 0.00 | 71 | 1012.8 |
| 20260903140804 | 83 | 179 | 4.3 | 10.4 | 0.00 | 0.00 | 0.00 | 71 | 1012.9 |
| 20260903140304 | 83 | 193 | 4.3 | 13.9 | 0.00 | 0.00 | 0.00 | 72 | 1012.9 |
| 20260903134805 | 81 | 176 | 8.7 | 13.9 | 0.00 | 0.00 | 0.00 | 74 | 1012.8 |
| 20260903134304 | 81 | 176 | 7.8 | 12.2 | 0.00 | 0.00 | 0.00 | 74 | 1012.8 |
| 20260903133804 | 81 | 177 | 6.1 | 8.7 | 0.00 | 0.00 | 0.00 | 74 | 1012.9 |
| 20260903131804 | 80 | 164 | 4.3 | 11.3 | 0.00 | 0.00 | 0.00 | 76 | 1013.0 |
| 20260903130805 | 80 | 183 | 5.2 | 10.4 | 0.00 | 0.00 | 0.00 | 77 | 1012.8 |
| 20260903130304 | 80 | 167 | 5.2 | 10.4 | 0.00 | 0.00 | 0.00 | 77 | 1012.8 |
| 20260903124804 | 79 | 192 | 4.3 | 7.0 | 0.00 | 0.00 | 0.00 | 77 | 1012.7 |
| 20260903124304 | 79 | 160 | 4.3 | 8.7 | 0.00 | 0.00 | 0.00 | 77 | 1012.7 |
| 20260903123804 | 79 | 189 | 4.3 | 8.7 | 0.00 | 0.00 | 0.00 | 77 | 1012.8 |
| 20260903123304 | 79 | 178 | 4.3 | 11.3 | 0.00 | 0.00 | 0.00 | 78 | 1012.7 |
| 20260903121804 | 79 | 156 | 4.3 | 11.3 | 0.00 | 0.00 | 0.00 | 78 | 1012.6 |
| 20260903121304 | 79 | 161 | 7.8 | 13.9 | 0.00 | 0.00 | 0.00 | 78 | 1012.6 |
| 20260903120804 | 79 | 155 | 5.2 | 8.7 | 0.00 | 0.00 | 0.00 | 78 | 1012.5 |
| 20260903120304 | 79 | 157 | 5.2 | 12.2 | 0.00 | 0.00 | 0.00 | 78 | 1012.4 |
| 20260903114304 | 79 | 185 | 4.3 | 7.8 | 0.00 | 0.00 | 0.00 | 78 | 1012.4 |
| 20260903113304 | 79 | 157 | 5.2 | 10.4 | 0.00 | 0.00 | 0.00 | 78 | 1012.4 |
| 20260903111804 | 79 | 155 | 4.3 | 10.4 | 0.00 | 0.00 | 0.00 | 78 | 1012.2 |
| 20260903111305 | 79 | 173 | 5.2 | 8.7 | 0.00 | 0.00 | 0.00 | 78 | 1012.2 |
| 20260903110304 | 79 | 165 | 5.2 | 12.2 | 0.00 | 0.00 | 0.00 | 78 | 1012.2 |
| 20260903104806 | 79 | 185 | 4.3 | 8.7 | 0.00 | 0.00 | 0.00 | 78 | 1012.2 |
| 20260903104305 | 79 | 157 | 3.5 | 7.0 | 0.00 | 0.00 | 0.00 | 78 | 1012.1 |
| 20260903103805 | 79 | 175 | 2.6 | 8.7 | 0.00 | 0.00 | 0.00 | 78 | 1012.0 |
| 20260903103304 | 79 | 155 | 6.1 | 11.3 | 0.00 | 0.00 | 0.00 | 78 | 1012.0 |
| 20260903101804 | 79 | 173 | 5.2 | 7.8 | 0.00 | 0.00 | 0.00 | 78 | 1012.0 |
| 20260903101304 | 79 | 170 | 5.2 | 8.7 | 0.00 | 0.00 | 0.00 | 78 | 1012.1 |
| 20260903100805 | 79 | 169 | 4.3 | 7.8 | 0.00 | 0.00 | 0.00 | 78 | 1012.1 |
| 20260903100305 | 79 | 168 | 3.5 | 11.3 | 0.00 | 0.00 | 0.00 | 78 | 1012.0 |
| 20260903094804 | 79 | 161 | 5.2 | 7.8 | 0.00 | 0.00 | 0.00 | 78 | 1012.0 |
| 20260903094305 | 79 | 188 | 5.2 | 10.4 | 0.00 | 0.00 | 0.00 | 77 | 1012.1 |
| 20260903093805 | 79 | 162 | 4.3 | 7.8 | 0.00 | 0.00 | 0.00 | 77 | 1012.1 |
| 20260903091805 | 79 | 166 | 4.3 | 13.9 | 0.00 | 0.00 | 0.00 | 77 | 1012.3 |
| 20260903090804 | 79 | 162 | 5.2 | 11.3 | 0.00 | 0.00 | 0.00 | 77 | 1012.3 |
| 20260903090304 | 79 | 164 | 5.2 | 13.9 | 0.00 | 0.00 | 0.00 | 77 | 1012.3 |
| 20260903084804 | 79 | 162 | 5.2 | 10.4 | 0.00 | 0.00 | 0.00 | 76 | 1012.3 |
| 20260903084304 | 79 | 175 | 5.2 | 13.0 | 0.00 | 0.00 | 0.00 | 76 | 1012.3 |
| 20260903083804 | 79 | 163 | 6.1 | 10.4 | 0.00 | 0.00 | 0.00 | 76 | 1012.4 |
| 20260903083304 | 79 | 162 | 6.1 | 13.9 | 0.00 | 0.00 | 0.00 | 76 | 1012.4 |
| 20260903081805 | 80 | 165 | 4.3 | 10.4 | 0.00 | 0.00 | 0.00 | 75 | 1012.3 |
| 20260903081304 | 80 | 162 | 6.1 | 14.8 | 0.00 | 0.00 | 0.00 | 75 | 1012.3 |
| 20260903080804 | 80 | 165 | 5.2 | 8.7 | 0.00 | 0.00 | 0.00 | 75 | 1012.3 |
| 20260903074804 | 80 | 165 | 7.0 | 11.3 | 0.00 | 0.00 | 0.00 | 73 | 1012.4 |
| 20260903074305 | 80 | 163 | 7.0 | 12.2 | 0.00 | 0.00 | 0.00 | 73 | 1012.5 |
| 20260903073804 | 80 | 173 | 6.1 | 8.7 | 0.00 | 0.00 | 0.00 | 72 | 1012.4 |
| 20260903073304 | 80 | 167 | 5.2 | 12.2 | 0.00 | 0.00 | 0.00 | 72 | 1012.5 |
| 20260903071804 | 81 | 161 | 6.1 | 12.2 | 0.00 | 0.00 | 0.00 | 71 | 1012.5 |
| 20260903071304 | 81 | 163 | 6.1 | 12.2 | 0.00 | 0.00 | 0.00 | 70 | 1012.6 |
| 20260903070804 | 81 | 174 | 5.2 | 10.4 | 0.00 | 0.00 | 0.00 | 69 | 1012.6 |
| 20260903064804 | 82 | 170 | 6.1 | 11.3 | 0.00 | 0.00 | 0.00 | 68 | 1012.6 |
| 20260903064304 | 82 | 163 | 6.1 | 10.4 | 0.00 | 0.00 | 0.00 | 67 | 1012.8 |
| 20260903063804 | 82 | 165 | 7.0 | 10.4 | 0.00 | 0.00 | 0.00 | 67 | 1012.8 |
| 20260903063304 | 82 | 174 | 9.6 | 14.8 | 0.00 | 0.00 | 0.00 | 66 | 1012.8 |
| 20260903061805 | 82 | 161 | 7.0 | 12.2 | 0.00 | 0.00 | 0.00 | 66 | 1012.9 |
| 20260903060804 | 83 | 159 | 8.7 | 13.0 | 0.00 | 0.00 | 0.00 | 66 | 1012.8 |
| 20260903060304 | 83 | 164 | 6.1 | 15.6 | 0.00 | 0.00 | 0.00 | 65 | 1012.9 |
| 20260903054804 | 83 | 157 | 7.8 | 12.2 | 0.00 | 0.00 | 0.00 | 64 | 1012.8 |
| 20260903054304 | 83 | 166 | 7.8 | 20.9 | 0.00 | 0.00 | 0.00 | 63 | 1012.8 |
| 20260903053805 | 83 | 165 | 11.3 | 20.9 | 0.00 | 0.00 | 0.00 | 62 | 1012.7 |
| 20260903053305 | 83 | 157 | 8.7 | 18.2 | 0.00 | 0.00 | 0.00 | 62 | 1012.6 |